CAPE
0 0 0 0 1 119 0 39 11 66 110 79 59 43 72 15 2 0 1 3 4 4 5 6 8 9 7 2 0 0 0 0 0 0 0 0 0 0 0 0 0 0 0
0 0 0 0 54 6 0 9 19 44 91 143 112 39 65 9 2 2 1 5 4 6 7 7 11 10 8 5 0 0 0 0 0 0 0 0 0 0 0 0 0 0 0
0 0 0 48 49 0 0 0 40 34 103 132 69 64 11 4 1 2 10 11 12 8 8 8 8 6 5 2 0 0 0 0 0 0 0 0 0 0 0 0 0 0 0
0 0 6 29 36 0 0 0 0 9 25 21 46 52 23 16 4 1 5 6 8 5 5 2 2 0 0 0 0 0 0 0 0 0 0 0 0 0 0 0 0 0 0
0 6 4 23 22 0 0 0 0 0 0 0 3 5 3 1 1 9 17 6 4 3 4 3 0 0 0 0 0 0 0 0 0 0 0 0 0 0 9 3 0 0 0
0 13 9 17 6 0 0 0 0 0 0 0 0 0 0 0 0 0 0 0 10 1 0 0 0 0 0 0 0 0 0 0 0 0 0 0 0 0 0 8 0 0 0
2 3 8 11 0 0 0 0 0 0 0 1 1 0 0 0 0 0 0 0 0 0 0 0 0 0 0 0 0 0 0 0 0 0 0 0 0 0 0 1 9 0 0
0 3 4 3 0 0 0 0 0 0 0 0 0 0 0 0 0 0 0 0 0 0 0 0 0 0 0 0 0 0 0 0 0 2 0 0 0 0 0 2 2 12 11
0 0 0 0 0 0 0 0 0 0 0 0 0 0 0 0 0 0 0 0 0 0 0 0 0 0 0 0 0 0 0 0 0 0 0 0 0 0 0 3 15 16 30
7 8 10 14 1 0 0 0 0 0 0 0 0 0 0 0 0 0 0 0 0 0 0 0 0 0 0 0 0 0 0 0 0 0 0 0 0 0 0 0 0 0 0
0 10 17 5 5 14 0 0 0 0 0 0 0 0 0 0 0 0 0 0 0 0 0 0 0 0 0 0 0 0 0 0 0 0 0 0 0 0 0 0 0 0 0
0 0 2 4 10 1 0 0 0 0 0 1 0 0 1 0 0 0 0 0 0 0 0 0 0 0 0 0 0 0 0 0 0 0 0 0 0 0 0 0 0 0 0
0 0 0 2 3 0 0 0 0 0 5 1 4 2 0 0 0 0 0 0 0 0 0 0 0 0 0 0 0 0 0 0 0 0 0 0 0 0 0 0 0 0 0
1 1 0 0 1 4 1 0 3 4 4 1 0 0 0 0 0 0 0 0 0 0 0 2 0 1 1 5 2 3 0 0 0 0 0 0 0 0 0 0 0 0 34
2 0 1 2 0 1 2 0 7 4 0 3 0 0 0 0 0 0 3 7 8 9 10 13 7 8 14 13 12 27 25 23 15 7 2 0 0 0 0 0 13 17 41
0 0 0 0 3 3 0 6 4 2 3 0 0 0 0 0 0 5 5 10 9 14 27 37 50 41 25 33 17 5 1 0 3 20 12 10 9 5 1 2 12 57 76
0 0 0 0 0 2 0 0 0 1 1 0 0 1 2 3 5 4 10 17 17 39 58 17 16 13 4 2 0 3 1 6 11 7 12 10 0 0 0 3 4 14 50
0 0 0 1 0 0 0 0 0 4 0 2 8 20 31 23 6 5 7 10 0 0 3 1 2 3 2 1 0 0 0 0 0 0 0 0 1 2 5 8 7 17 23
37 27 0 0 0 0 0 0 0 5 4 16 3 0 0 0 0 0 0 0 0 0 0 0 0 0 0 0 0 0 0 0 0 0 0 0 2 1 0 0 0 0 0
70 62 21 1 0 0 0 0 2 5 0 0 0 0 0 0 0 0 0 0 0 0 0 0 0 0 0 0 0 0 0 0 0 0 0 0 0 0 0 0 0 0 0
44 47 53 36 21 10 7 6 18 0 0 0 0 0 0 0 0 0 0 0 0 0 0 0 0 0 0 0 0 0 0 0 0 0 0 0 0 0 0 0 0 0 0
62 16 4 4 23 22 76 4 0 0 0 0 0 0 0 0 0 0 0 0 0 0 0 0 0 0 0 0 0 0 0 0 0 0 0 0 0 0 0 0 0 0 0
0 0 0 0 0 0 0 0 0 0 0 0 0 0 0 0 0 0 0 0 0 0 0 0 0 0 0 0 0 2 0 0 0 0 0 0 0 0 0 0 0 0 0
0 0 0 0 0 0 0 0 0 0 0 0 0 0 0 0 0 0 0 0 0 0 0 0 0 0 0 0 0 0 0 0 0 0 0 0 0 0 0 0 0 0 0
0 0 0 0 0 0 0 0 0 0 0 0 0 0 0 0 0 0 0 0 0 0 0 0 0 0 0 0 0 0 0 0 0 0 0 0 0 0 0 0 0 0 0
0 0 0 0 0 0 0 0 0 0 0 0 0 0 0 0 0 0 0 0 0 0 0 0 0 0 0 0 0 0 0 0 0 0 0 0 0 0 0 0 0 0 0
CIN
-0 -0 -0 -0 -0 -10 -0 -33 -18 -16 -9 -7 -11 -8 -20 -1 -0 -0 -0 -0 -0 -0 -0 -0 -0 -0 -0 -0 -0 -0 -0 -0 -0 -0 -0 -0 -0 -0 -0 -0 -0 -0 -0
-0 -0 -0 -0 -12 -0 -0 -1 -7 -23 -6 -4 -8 -44 -35 -0 -0 -0 -0 -0 -0 -0 -0 -0 -0 -0 -0 -0 -0 -0 -0 -0 -0 -0 -0 -0 -0 -0 -0 -0 -0 -0 -0
-0 -0 -0 -27 -29 -0 -0 -0 -20 -11 -14 -11 -27 -33 -3 -4 -0 -0 -0 -0 -0 -1 -1 -0 -0 -0 -0 -0 -0 -0 -0 -0 -0 -0 -0 -0 -0 -0 -0 -0 -0 -0 -0
-0 -0 -0 -0 -0 -0 -0 -0 -0 -0 -1 -1 -53 -60 -0 -0 -0 -0 -0 -0 -0 -0 -0 -0 -0 -0 -0 -0 -0 -0 -0 -0 -0 -0 -0 -0 -0 -0 -0 -0 -0 -0 -0
-0 -1 -3 -0 -1 -0 -0 -0 -0 -0 -0 -0 -1 -0 -0 -0 -0 -2 -1 -0 -0 -0 -0 -0 -0 -0 -0 -0 -0 -0 -0 -0 -0 -0 -0 -0 -0 -0 -0 -0 -0 -0 -0
-0 -14 -3 -2 -1 -0 -0 -0 -0 -0 -0 -0 -0 -0 -0 -0 -0 -0 -0 -0 -4 -0 -0 -0 -0 -0 -0 -0 -0 -0 -0 -0 -0 -0 -0 -0 -0 -0 -0 -0 -0 -0 -0
-4 -10 -1 -1 -0 -0 -0 -0 -0 -0 -0 -0 -0 -0 -0 -0 -0 -0 -0 -0 -0 -0 -0 -0 -0 -0 -0 -0 -0 -0 -0 -0 -0 -0 -0 -0 -0 -0 -0 -0 -0 -0 -0
-0 -0 -0 -1 -0 -0 -0 -0 -0 -0 -0 -0 -0 -0 -0 -0 -0 -0 -0 -0 -0 -0 -0 -0 -0 -0 -0 -0 -0 -0 -0 -0 -0 -10 -0 -1 -0 -0 -0 -0 -0 -0 -0
-0 -0 -0 -0 -0 -0 -0 -0 -0 -0 -0 -0 -0 -0 -0 -0 -0 -0 -0 -0 -0 -0 -0 -0 -0 -0 -0 -0 -0 -0 -0 -0 -0 -0 -0 -0 -0 -0 -0 -0 -0 -0 -0
-6 -8 -7 -12 -0 -0 -0 -0 -0 -0 -0 -0 -0 -0 -0 -0 -0 -0 -0 -0 -0 -0 -0 -0 -0 -0 -0 -0 -0 -0 -0 -0 -0 -0 -0 -0 -0 -0 -0 -0 -0 -0 -0
-0 -4 -4 -4 -1 -8 -0 -0 -0 -0 -0 -0 -0 -0 -0 -0 -0 -0 -0 -0 -0 -0 -0 -0 -0 -0 -0 -0 -0 -0 -0 -0 -0 -0 -0 -0 -0 -0 -0 -0 -0 -0 -0
-0 -0 -1 -5 -4 -0 -0 -0 -0 -0 -0 -8 -0 -0 -12 -0 -0 -0 -0 -0 -0 -0 -0 -0 -0 -0 -0 -0 -0 -0 -0 -0 -0 -0 -0 -0 -0 -0 -0 -0 -0 -0 -0
-0 -0 -0 -1 -1 -0 -0 -0 -0 -0 -6 -0 -0 -1 -1 -0 -0 -0 -0 -0 -0 -0 -0 -0 -0 -0 -0 -0 -0 -0 -0 -0 -0 -0 -0 -0 -0 -0 -0 -0 -0 -0 -0
-2 -2 -0 -0 -0 -1 -0 -0 -1 -2 -1 -1 -0 -0 -0 -0 -0 -0 -0 -0 -0 -0 -0 -5 -5 -3 -5 -6 -12 -7 -1 -0 -0 -0 -0 -0 -0 -0 -0 -0 -0 -0 -0
-3 -0 -2 -2 -0 -1 -2 -0 -1 -2 -0 -1 -0 -0 -0 -0 -0 -1 -2 -3 -3 -2 -5 -8 -4 -7 -11 -7 -8 -4 -5 -9 -11 -8 -11 -3 -0 -0 -0 -0 -5 -1 -0
-0 -0 -0 -0 -1 -1 -0 -1 -2 -2 -1 -0 -0 -0 -0 -0 -0 -5 -6 -6 -6 -8 -10 -3 -1 -1 -2 -3 -3 -2 -1 -0 -5 -6 -6 -9 -2 -4 -2 -2 -5 -3 -0
-0 -0 -0 -0 -0 -1 -0 -0 -0 -1 -1 -0 -0 -2 -1 -4 -4 -5 -5 -6 -7 -10 -4 -1 -3 -7 -4 -3 -0 -2 -2 -0 -0 -2 -2 -3 -0 -0 -0 -3 -4 -5 -2
-0 -0 -0 -1 -0 -0 -0 -0 -0 -2 -0 -1 -3 -6 -21 -17 -11 -4 -4 -8 -2 -0 -0 -4 -2 -1 -1 -3 -0 -0 -0 -0 -0 -0 -0 -0 -3 -3 -4 -4 -6 -5 -5
-60 -52 -0 -0 -0 -0 -0 -0 -0 -1 -4 -32 -23 -0 -0 -0 -0 -0 -0 -0 -0 -0 -0 -0 -0 -0 -0 -0 -0 -0 -0 -0 -0 -0 -0 -0 -2 -2 -0 -0 -0 -0 -0
-28 -28 -49 -3 -0 -0 -0 -0 -4 -4 -0 -0 -0 -0 -0 -0 -0 -0 -0 -0 -0 -0 -0 -0 -0 -0 -0 -0 -0 -0 -0 -0 -0 -0 -0 -0 -0 -0 -0 -0 -0 -0 -0
-29 -28 -18 -26 -23 -6 -6 -7 -5 -0 -0 -0 -0 -0 -0 -0 -0 -0 -0 -0 -0 -0 -0 -0 -0 -0 -0 -0 -0 -0 -0 -0 -0 -0 -0 -0 -0 -0 -0 -0 -0 -0 -0
-29 -31 -24 -20 -55 -56 -38 -36 -0 -0 -0 -0 -0 -0 -0 -0 -0 -0 -0 -0 -0 -0 -0 -0 -0 -0 -0 -0 -0 -0 -0 -0 -0 -0 -0 -0 -0 -0 -0 -0 -0 -0 -0
-0 -0 -0 -0 -0 -0 -0 -0 -0 -0 -0 -0 -0 -0 -0 -0 -0 -0 -0 -0 -0 -0 -0 -0 -0 -0 -0 -0 -0 -1 -0 -0 -0 -0 -0 -0 -0 -0 -0 -0 -0 -0 -0
-0 -0 -0 -0 -0 -0 -0 -0 -0 -0 -0 -0 -0 -0 -0 -0 -0 -0 -0 -0 -0 -0 -0 -0 -0 -0 -0 -0 -0 -0 -0 -0 -0 -0 -0 -0 -0 -0 -0 -0 -0 -0 -0
-0 -0 -0 -0 -0 -0 -0 -0 -0 -0 -0 -0 -0 -0 -0 -0 -0 -0 -0 -0 -0 -0 -0 -0 -0 -0 -0 -0 -0 -0 -0 -0 -0 -0 -0 -0 -0 -0 -0 -0 -0 -0 -0
-0 -0 -0 -0 -0 -0 -0 -0 -0 -0 -0 -0 -0 -0 -0 -0 -0 -0 -0 -0 -0 -0 -0 -0 -0 -0 -0 -0 -0 -0 -0 -0 -0 -0 -0 -0 -0 -0 -0 -0 -0 -0 -0
Wind_Speed
19 23 25 26 26 9 5 6 8 8 18 16 15 17 17 18 20 21 21 21 21 22 22 23 23 23 23 23 24 23 24 24 25 25 25 25 23 17 16 17 18 18 18
16 20 21 22 22 13 7 6 11 15 18 18 18 17 18 19 20 21 21 21 21 22 22 22 23 23 23 23 23 23 23 24 24 22 22 24 21 17 18 18 19 20 20
12 12 12 15 15 14 11 10 11 16 17 18 19 19 19 19 20 20 20 21 21 21 22 22 22 23 23 22 22 22 23 23 23 22 23 20 21 19 19 20 20 21 21
12 17 10 12 12 11 10 11 12 13 16 17 16 16 17 18 19 20 20 21 21 22 23 23 23 23 23 22 22 23 23 22 20 20 21 22 21 21 21 21 21 22 23
18 14 15 15 15 14 12 11 12 12 13 13 14 15 17 18 19 20 21 21 22 22 23 23 23 23 23 22 23 23 23 21 19 15 20 22 22 23 23 23 23 24 24
14 12 15 16 15 15 14 14 13 13 14 13 14 15 16 17 19 19 20 21 21 21 22 22 22 22 23 23 23 23 23 22 21 18 22 22 22 24 24 25 25 25 24
9 11 11 13 15 16 16 15 15 15 16 14 15 15 16 17 18 19 20 20 20 20 21 21 22 22 22 23 23 23 23 23 22 22 22 22 22 25 26 26 26 26 26
8 11 12 12 12 13 13 15 15 16 16 17 16 17 17 17 18 19 19 20 20 20 21 21 22 22 23 23 24 24 24 24 23 22 23 21 22 26 27 28 28 28 28
8 8 10 10 10 11 13 14 15 16 16 16 16 16 17 17 17 18 18 19 20 20 21 21 22 23 23 23 23 23 23 20 21 23 23 19 22 27 28 28 29 30 30
8 9 12 12 12 12 12 14 15 16 16 16 17 17 17 17 17 18 18 19 19 20 21 21 22 22 21 20 20 21 21 21 18 15 22 20 23 27 28 29 29 30 29
3 9 10 9 10 14 13 13 14 15 15 16 16 16 16 15 16 16 18 18 19 19 20 21 21 21 20 19 14 16 19 21 21 24 23 20 23 26 28 28 28 29 29
4 3 4 9 11 9 11 13 14 14 15 15 14 14 14 16 17 16 16 17 17 18 17 18 19 20 22 22 26 15 17 19 25 24 24 20 21 24 25 26 27 28 29
5 4 5 5 7 9 10 13 13 13 13 13 13 14 15 15 15 15 15 15 17 16 21 19 21 20 23 25 25 25 27 28 26 25 24 22 22 24 25 25 26 27 28
3 4 5 5 6 7 9 10 11 11 12 12 13 13 14 14 15 17 17 19 19 18 21 22 23 24 25 24 25 25 25 25 26 27 28 28 27 26 27 28 29 29 29
2 2 5 4 6 6 7 8 9 10 11 11 12 12 13 14 15 16 18 19 20 22 24 24 26 27 29 31 32 32 32 30 29 29 30 29 28 27 27 28 29 29 29
3 2 3 5 4 5 5 7 8 9 10 11 11 12 12 13 15 18 21 23 25 25 26 28 30 32 32 31 31 31 32 33 32 30 28 28 28 28 28 28 29 31 33
0 1 2 2 3 4 5 7 9 9 11 11 10 11 13 15 17 19 21 23 25 27 28 31 32 33 34 34 35 31 31 31 30 30 30 32 33 32 31 29 30 31 31
4 1 1 2 2 4 5 6 7 9 9 10 13 15 18 20 22 23 24 24 26 29 29 31 32 33 32 32 33 35 35 35 34 34 33 32 31 32 32 32 32 32 32
3 3 3 4 4 4 6 6 7 8 11 14 16 18 20 22 24 24 24 26 28 29 31 32 33 33 34 35 35 35 37 36 35 32 32 31 31 32 33 32 32 32 33
5 4 4 4 5 5 6 8 8 12 13 15 17 19 21 23 24 24 25 27 28 28 30 32 33 34 33 35 35 36 37 33 29 30 29 33 35 33 33 33 33 33 33
8 8 8 7 7 7 8 7 9 11 13 15 18 20 21 22 23 25 26 27 27 27 30 32 33 35 36 37 35 39 33 34 30 31 35 36 35 36 34 35 35 35 35
10 11 11 12 12 14 12 11 10 11 13 14 17 20 22 23 24 24 25 27 28 28 30 33 34 35 33 38 39 38 41 38 33 40 35 39 34 36 38 36 38 39 37
13 14 13 14 15 16 14 10 9 11 14 16 18 20 22 22 23 24 25 26 28 29 31 33 34 35 37 36 38 37 39 40 46 31 40 33 41 36 37 41 38 40 39
14 14 15 16 16 16 14 12 13 14 16 16 17 19 21 22 23 24 26 27 28 31 32 34 36 36 36 37 34 36 34 36 40 44 33 42 36 42 41 42 39 40 39
15 15 14 14 15 15 14 12 13 14 15 16 18 19 21 23 24 26 28 28 30 32 34 35 35 33 33 33 34 36 34 36 32 39 47 44 40 41 40 42 41 40 39
13 13 13 12 14 15 14 14 13 13 15 16 20 22 25 28 28 29 30 30 31 33 32 31 32 33 33 32 32 34 35 35 40 39 46 48 48 42 46 39 41 39 39
Wind_Direction
90 103 110 115 134 33 350 326 318 324 81 63 47 63 52 41 31 27 27 27 27 28 26 27 26 23 24 29 26 23 25 33 46 49 36 32 14 350 338 339 344 340 341
81 96 92 90 89 50 14 347 4 30 59 67 62 57 52 39 31 26 26 27 27 27 26 25 23 21 24 26 25 16 17 29 52 66 58 32 5 344 344 341 349 350 350
68 72 62 72 64 52 36 18 15 30 44 56 63 58 45 31 25 22 21 24 27 24 23 23 20 22 22 18 12 9 12 20 39 49 36 44 9 345 341 340 342 347 345
66 85 60 66 56 43 32 25 24 25 34 43 43 34 26 23 23 23 24 28 28 33 32 27 22 23 20 9 1 5 13 34 53 49 37 355 2 343 334 334 336 340 341
85 75 78 73 63 53 38 24 18 20 21 22 20 19 18 19 24 25 25 36 40 37 33 31 26 20 14 2 360 5 13 30 43 62 32 5 329 335 326 326 325 330 335
75 69 79 76 66 58 49 39 32 24 23 21 19 16 17 22 25 26 25 27 27 28 27 25 23 22 17 7 3 6 10 15 21 42 3 358 352 339 332 330 335 340 347
64 71 72 70 67 63 55 47 43 41 39 24 27 25 23 25 26 25 23 22 22 23 23 21 18 14 11 8 6 6 8 9 7 8 5 3 350 340 332 327 328 333 336
64 78 76 66 60 52 45 47 48 47 48 50 41 39 34 29 26 26 26 25 24 22 19 18 17 15 8 5 2 360 356 353 356 3 360 0 353 341 331 324 323 325 329
64 70 71 66 51 47 47 51 56 55 52 45 42 41 41 37 31 27 25 23 23 21 20 14 10 14 14 12 15 13 11 22 13 359 356 2 354 342 333 329 324 322 323
68 75 87 78 74 65 52 56 60 59 55 54 56 58 60 57 52 44 38 31 26 20 14 8 8 15 22 28 24 20 18 13 20 26 1 1 351 346 341 336 332 330 331
328 77 84 64 67 87 60 64 64 64 64 64 60 65 76 83 70 65 48 40 36 28 27 16 10 14 23 24 33 28 20 13 10 357 357 2 353 346 341 340 340 340 338
63 21 15 62 83 51 59 79 83 79 86 85 80 73 74 45 35 49 55 48 40 28 30 25 17 14 6 8 353 24 17 10 352 355 352 360 355 351 348 345 342 340 338
84 47 52 25 43 51 56 86 87 77 86 68 60 56 42 38 44 50 41 42 29 30 7 12 6 7 357 352 354 350 344 340 345 347 348 351 348 346 345 344 341 340 338
77 54 64 48 38 19 50 63 68 70 65 65 61 47 37 40 29 17 15 5 7 8 1 359 354 352 351 352 349 347 345 343 342 339 336 336 337 338 337 337 336 335 334
19 17 324 22 66 64 16 57 52 46 44 63 42 47 40 25 17 13 4 360 359 352 346 346 345 344 339 335 333 330 332 336 336 335 334 334 336 336 336 335 335 335 335
292 343 324 322 49 61 41 11 15 16 33 19 29 34 36 21 11 359 351 346 341 343 341 336 335 335 336 336 336 336 335 332 333 335 336 336 336 336 335 334 333 333 332
16 78 92 79 1 13 8 2 356 4 354 9 21 21 10 2 1 356 350 347 345 341 338 334 335 335 333 332 330 335 337 337 336 335 335 333 332 333 335 335 334 333 333
295 305 58 347 3 349 6 4 3 358 360 1 355 350 346 344 341 342 342 346 343 339 338 337 338 337 338 338 336 333 333 333 333 332 334 335 335 336 337 337 336 335 334
292 308 323 321 323 335 340 350 352 352 345 345 343 342 342 341 340 340 344 345 342 340 337 338 338 339 336 336 336 336 332 332 332 336 337 341 343 341 340 339 338 336 334
305 312 318 323 320 324 329 329 337 338 342 341 338 337 337 337 340 342 343 344 344 343 340 341 340 340 339 337 336 336 335 338 340 340 344 341 340 340 339 338 337 335 333
301 307 310 316 320 319 317 319 319 327 335 338 338 338 339 340 341 342 342 344 347 349 345 342 341 338 337 338 334 333 339 339 337 340 338 336 338 336 338 336 334 333 332
309 313 316 320 322 320 319 322 323 327 336 340 342 342 342 342 343 345 345 345 346 346 345 342 342 338 339 339 334 331 328 333 334 331 333 334 338 337 334 335 332 331 331
307 311 316 316 318 321 322 327 332 334 333 335 336 340 340 345 346 348 347 348 345 346 341 338 341 336 333 335 336 334 328 326 327 338 332 339 335 339 339 335 335 332 331
304 313 314 315 317 320 326 327 324 321 324 334 338 342 344 348 348 350 347 349 347 344 342 339 339 336 333 334 338 337 336 332 328 326 338 333 340 335 335 334 336 334 333
303 308 314 321 327 334 333 334 331 331 334 342 346 344 345 345 346 345 342 344 343 340 338 336 339 343 340 338 338 335 336 334 337 328 324 329 335 334 335 334 333 333 333
306 312 318 325 330 339 345 344 346 344 340 341 339 337 336 334 337 340 338 341 339 338 342 344 343 343 342 344 341 339 338 336 332 332 326 328 329 333 330 335 335 336 338